Location: Unspecified
(0.0000°N, 0.0000°E)
Time: 06:51:39
(UTC+00:00)

Vanguard 1 - Pass Details

Date: 18 December 2018
Orbit: 654 x 3829 km, 34.2° (Epoch: 15 June)

Event Time Altitude Azimuth Distance (km) Brightness Sun altitude
Rises 22:38:21 0° 222° (SW) 7,174 14.9 -59.8°
Reaches altitude 10° 22:45:12 10° 210° (SSW) 5,595 14.2 -60.8°
Enters shadow 22:54:24 24° 176° (S) 3,654 13.0 -62.1°
